AG6V Weather Reports


time (UTC)temp
C
wind
direction
speed
KPH
gust
KPH
rain 1hr
cm
rain 24hr
cm
rain mn
cm
humidity
%
barometer
mb
20260503211552 26 20 0.0 0.0 0.00 0.00 0.00 47 1012.8
20260503210049 26 24 0.0 0.0 0.00 0.00 0.00 47 1012.9
20260503204606 26 5 0.0 0.0 0.00 0.00 0.00 47 1013.2
20260503203045 25 360 0.0 0.0 0.00 0.00 0.00 50 1013.3
20260503201541 25 315 0.0 0.0 0.00 0.00 0.00 51 1013.4
20260503200040 23 26 0.0 0.0 0.00 0.00 0.00 52 1013.7
20260503194542 23 19 0.0 0.0 0.00 0.00 0.00 49 1013.7
20260503193044 24 14 0.0 0.0 0.00 0.00 0.00 48 1013.8
20260503191601 25 274 0.0 0.0 0.00 0.00 0.00 48 1014.0
20260503190033 25 270 0.0 0.0 0.00 0.00 0.00 49 1014.1
20260503184526 23 306 0.0 0.0 0.00 0.00 0.00 48 1014.3
20260503183020 22 344 0.0 0.0 0.00 0.00 0.00 53 1014.5
20260503181516 21 360 0.0 0.0 0.00 0.00 0.00 55 1014.6
20260503180013 21 238 0.0 0.0 0.00 0.00 0.00 58 1014.7
20260503174509 19 321 0.0 0.0 0.00 0.00 0.00 63 1014.9
20260503173005 18 355 0.0 1.6 0.00 0.00 0.00 67 1015.0
20260503171600 17 287 0.0 0.0 0.00 0.00 0.00 70 1015.1
20260503170111 16 294 0.0 3.2 0.00 0.00 0.00 70 1015.2
20260503081504 13 253 0.0 0.0 0.00 0.00 0.00 78 1015.2
20260503071613 13 253 0.0 0.0 0.00 0.00 0.00 77 1015.1
20260503054609 13 253 0.0 0.0 0.00 0.00 0.00 76 1014.9
20260503053054 13 253 0.0 0.0 0.00 0.00 0.00 76 1014.9
20260503051554 13 253 0.0 0.0 0.00 0.00 0.00 76 1014.9
20260503050053 13 253 0.0 0.0 0.00 0.00 0.00 76 1014.9
20260503044553 13 254 0.0 0.0 0.00 0.00 0.00 76 1014.8
20260503043056 14 192 0.0 0.0 0.00 0.00 0.00 75 1014.7
20260503041552 15 192 0.0 0.0 0.00 0.00 0.00 72 1014.6
20260503040055 15 194 0.0 0.0 0.00 0.00 0.00 72 1014.6
20260503034551 16 290 0.0 0.0 0.00 0.00 0.00 72 1014.3
20260503033050 16 290 0.0 0.0 0.00 0.00 0.00 68 1014.1
20260503031550 17 288 0.0 0.0 0.00 0.00 0.00 65 1014.0
20260503030049 18 288 0.0 0.0 0.00 0.00 0.00 63 1013.7
20260503024549 19 273 0.0 0.0 0.00 0.00 0.00 61 1013.8
20260503023054 20 261 0.0 0.0 0.00 0.00 0.00 56 1013.7
20260503021548 20 296 0.0 0.0 0.00 0.00 0.00 56 1013.7
20260503020047 20 280 0.0 0.0 0.00 0.00 0.00 56 1013.9
20260503014557 21 345 0.0 0.0 0.00 0.00 0.00 57 1013.9
20260503013045 21 347 0.0 0.0 0.00 0.00 0.00 55 1014.2
20260503011543 21 347 0.0 0.0 0.00 0.00 0.00 55 1014.3
20260503010048 22 265 0.0 0.0 0.00 0.00 0.00 53 1014.3
20260503004546 23 35 0.0 0.0 0.00 0.00 0.00 50 1014.4
20260503003046 24 234 0.0 0.0 0.00 0.00 0.00 48 1014.4
20260503001546 24 282 0.0 0.0 0.00 0.00 0.00 47 1014.5
20260503000042 24 300 0.0 0.0 0.00 0.00 0.00 47 1014.6
20260502234548 25 329 0.0 0.0 0.00 0.00 0.00 47 1014.9
20260502233040 26 336 0.0 0.0 0.00 0.00 0.00 46 1014.9
20260502231533 25 213 0.0 0.0 0.00 0.00 0.00 46 1015.0
20260502230034 26 316 0.0 0.0 0.00 0.00 0.00 48 1015.1
20260502224528 25 42 0.0 0.0 0.00 0.00 0.00 50 1015.3
20260502223036 25 344 0.0 0.0 0.00 0.00 0.00 51 1015.5
20260502221522 23 294 0.0 0.0 0.00 0.00 0.00 54 1015.7
20260502220024 24 9 0.0 0.0 0.00 0.00 0.00 55 1016.0
20260502214519 24 202 0.0 0.0 0.00 0.00 0.00 54 1016.2
20260502213017 24 272 0.0 0.0 0.00 0.00 0.00 54 1016.3